Retour au catalogue

STARLINK-37247

ActifCommunicationsVLEO
NORAD 69835·PAYLOAD·🇺🇸 United States

Lancé Jul 5, 2026 depuis Cape Canaveral Space Force Station

Loading…

Prochains Passages (prochaines 24 heures)

TLE

FraisSource: CelesTrak SupGP

Époque: Sep 15, 2026, 03:24 UTC

1 69835C 26154S   26258.14215278  .00070171  00000+0  20727-2 0  2585
2 69835  53.1582 356.6116 0001199  96.7265  54.1602 15.34363620    12

Suivez STARLINK-37247 en temps réel avec AllMySat

Download on the App Store